Flag for U.S.A. Weather past 2 weeks in Albany, New York, U.S.A.

Now
81 °F

Broken clouds.


Feels Like: 83 °F
Forecast: 59 / 82 °F
Wind: 10 mph from South

Location: Albany County Airport

Current Time: Aug 20, 2014 at 6:58:16 PM

Latest Report: Aug 20, 2014 at 5:51 PM


Visibility: 10 mi

Pressure: 29.95 "Hg

Humidity: 58%

Dew point: 65 °F

Location of AlbanyLocation

Historic Weather in Albany — Graph

°F

Albany temperature yesterday

Maximum temperature yesterday: 78 °F (at 3:51 PM)
Minimum temperature yesterday: 52 °F (at 5:51 AM)
Average temperature yesterday: 65 °F

Past Weeks' High & Low Weather Summary

 TemperatureHumidityPressure
High86 °F (Aug 11, 3:51 PM)96% (Aug 11, 6:51 AM)30.17 "Hg (Aug 11, 6:51 AM)
Low52 °F (Aug 19, 5:51 AM)34% (Aug 10, 5:51 PM)29.68 "Hg (Aug 13, 3:51 PM)
Average68 °F69%29.95 "Hg
* Reported Aug 5 5:51 PM — Aug 20 5:51 PM, Albany, Weather by CustomWeather, © 2014

Note: Actual official high and low records may vary slightly from our data, if they occured in-between our weather recording intervals... More about our weather records

Advertising

Albany weather history for previous 24 hours

 ConditionsComfort  
Time TempWeatherWind HumidityBarometerVisibility
5:51 PM
Aug 20
81 °FBroken clouds.10 mph58%29.95 "Hg10 mi
4:51 PM82 °FBroken clouds.6 mph56%29.94 "Hg10 mi
3:51 PM82 °FBroken clouds.7 mph56%29.94 "Hg10 mi
2:51 PM82 °FBroken clouds.8 mph58%29.94 "Hg10 mi
1:51 PM81 °FScattered clouds.7 mph58%29.96 "Hg10 mi
12:51 PM79 °FBroken clouds.6 mph62%29.98 "Hg10 mi
11:51 AM76 °FBroken clouds.7 mph67%29.99 "Hg10 mi
10:51 AM73 °FCloudy.9 mph71%29.99 "Hg10 mi
9:51 AM69 °FBroken clouds.3 mph73%30.00 "Hg10 mi
8:51 AM66 °FMostly cloudy.No wind78%29.98 "Hg10 mi
7:51 AM62 °FPartly sunny.No wind80%29.98 "Hg10 mi
6:51 AM60 °FPartly cloudy.3 mph86%29.98 "Hg10 mi
5:51 AM60 °FPassing clouds.3 mph86%29.96 "Hg10 mi
4:51 AM59 °FPartly cloudy.No wind87%29.95 "Hg10 mi
3:51 AM60 °FPassing clouds.3 mph90%29.95 "Hg10 mi
2:51 AM59 °FPassing clouds.No wind90%29.95 "Hg10 mi
1:51 AM60 °FClear.No wind90%29.95 "Hg10 mi
12:51 AM61 °FPassing clouds.No wind83%29.95 "Hg10 mi
11:51 PM
Aug 19
61 °FPassing clouds.No wind87%29.93 "Hg10 mi
10:51 PM64 °FPassing clouds.No wind70%29.93 "Hg10 mi
9:51 PM65 °FPassing clouds.No wind66%29.92 "Hg10 mi
8:51 PM68 °FPassing clouds.No wind59%29.91 "Hg10 mi
7:51 PM72 °FScattered clouds.No wind48%29.90 "Hg10 mi
6:51 PM76 °FScattered clouds.5 mph43%29.90 "Hg10 mi
Weather by CustomWeather, © 2014

See weather overviewHow to use our weather pages